period_start,C,m1,H,J0,J1,J2,J3,J4,J5,JA,JB,JC,JD,JJ,JK,JN,#
2016-03-28 00:04:49,0.19,6.90,0.00,12.92,18.33,21.68,15.26,49.00,1018.57,2066.03,1650.76,1849.12,2072.63,600.02,618.20,38.28,0000 0000 0000 0000 000000
2016-03-28 00:09:50,0.16,6.91,0.00,13.00,18.34,21.69,15.20,48.97,1018.57,2066.02,1649.47,1848.03,2071.40,599.99,617.96,38.33,0000 0000 0000 0000 000000
2016-03-28 00:14:51,0.17,6.92,0.00,12.96,18.36,21.72,15.19,48.98,1018.57,2066.02,1648.09,1846.90,2070.04,599.86,617.92,38.38,0000 0000 0000 0000 000000
2016-03-28 00:19:52,0.24,6.93,0.00,12.95,18.37,21.82,15.17,49.07,1018.57,2066.00,1646.40,1845.61,2068.65,600.21,618.32,38.44,0000 0000 0000 0000 000000
2016-03-28 00:24:54,0.17,6.94,0.00,12.92,18.38,21.76,15.23,49.03,1018.57,2066.00,1644.89,1844.60,2067.43,600.14,618.49,38.49,0000 0000 0000 0000 000000
2016-03-28 00:29:55,0.15,6.95,0.00,12.93,18.39,21.69,15.15,49.01,1018.57,2066.00,1643.73,1843.55,2066.14,600.08,618.21,38.54,0000 0000 0000 0000 000000
2016-03-28 00:34:56,0.18,6.96,0.00,12.99,18.40,21.70,15.09,49.04,1018.58,2066.00,1642.22,1842.41,2064.86,599.67,617.79,38.59,0000 0000 0000 0000 000000
2016-03-28 00:39:57,0.20,6.97,0.00,13.05,18.42,21.69,15.12,48.99,1018.58,2065.99,1640.69,1841.30,2063.55,599.59,617.46,38.64,0000 0000 0000 0000 000000
2016-03-28 00:44:58,0.19,6.98,0.00,13.11,18.44,21.74,15.18,49.08,1018.63,2065.98,1638.97,1840.15,2062.18,600.24,618.02,38.69,0000 0000 0000 0000 000000
2016-03-28 00:50:00,0.20,6.99,0.00,13.08,18.45,21.71,15.15,49.08,1018.66,2065.98,1637.31,1838.85,2060.78,599.77,617.70,38.74,0000 0000 0000 0000 000000
2016-03-28 00:55:01,0.21,7.00,0.00,13.01,18.47,21.76,15.20,49.17,1018.72,2065.95,1635.73,1837.69,2059.47,599.99,618.10,38.79,0000 0000 0000 0000 000000
2016-03-28 01:00:02,0.17,7.01,0.00,13.02,18.48,21.75,15.13,49.13,1018.84,2065.92,1634.05,1836.56,2058.08,599.75,617.92,38.84,0000 0000 0000 0000 000000
2016-03-28 01:05:04,0.19,7.02,0.00,13.03,18.49,21.81,15.12,49.03,1018.93,2065.78,1632.45,1835.41,2056.74,599.86,618.27,38.89,0000 0000 0000 0000 000000
2016-03-28 01:10:05,0.19,7.03,0.00,13.02,18.50,21.81,15.22,49.19,1019.03,2065.69,1630.71,1834.23,2055.42,599.94,618.25,38.94,0000 0000 0000 0000 000000
2016-03-28 01:15:06,0.15,7.04,0.00,13.00,18.51,21.86,15.29,49.21,1019.04,2065.50,1629.27,1833.08,2054.10,600.17,618.45,38.99,0000 0000 0000 0000 000000
2016-03-28 01:20:07,0.17,7.05,0.00,12.97,18.52,21.84,15.15,49.17,1019.05,2065.28,1627.64,1831.95,2052.76,600.15,618.63,39.04,0000 0000 0000 0000 000000
2016-03-28 01:25:08,0.18,7.06,0.00,13.05,18.52,21.81,15.21,49.17,1019.06,2065.24,1626.19,1830.83,2051.47,600.22,618.41,39.09,0000 0000 0000 0000 000000
2016-03-28 01:30:09,0.19,7.06,0.00,13.07,18.54,21.86,15.23,49.17,1019.06,2065.15,1624.64,1829.69,2050.17,600.09,618.29,39.14,0000 0000 0000 0000 000000
2016-03-28 01:35:11,0.20,7.07,0.00,13.09,18.56,21.83,15.19,49.08,1019.06,2065.05,1622.93,1828.47,2048.75,599.92,618.02,39.19,0000 0000 0000 0000 000000
2016-03-28 01:40:12,0.18,7.08,0.00,13.13,18.57,21.86,15.23,49.31,1019.06,2065.05,1621.37,1827.33,2047.42,600.30,618.36,39.24,0000 0000 0000 0000 000000
2016-03-28 01:45:13,0.18,7.10,0.00,13.21,18.58,21.78,15.11,49.11,1019.06,2065.01,1619.71,1826.13,2046.31,599.83,617.60,39.29,0000 0000 0000 0000 000000
2016-03-28 01:50:15,0.19,7.11,0.00,13.21,18.59,21.87,15.22,49.17,1019.06,2065.01,1618.05,1824.92,2044.91,600.05,617.97,39.34,0000 0000 0000 0000 000000
2016-03-28 01:55:16,0.23,7.12,0.00,13.15,18.62,21.82,15.07,49.16,1019.06,2065.00,1616.36,1823.70,2043.57,599.63,617.48,39.40,0000 0000 0000 0000 000000
2016-03-28 02:00:17,0.22,7.13,0.00,13.16,18.63,21.87,15.14,49.20,1019.07,2065.00,1614.61,1822.39,2041.98,599.96,617.96,39.45,0000 0000 0000 0000 000000
2016-03-28 02:05:18,0.21,7.14,0.00,13.14,18.65,21.86,15.17,49.26,1019.09,2064.99,1612.97,1821.05,2040.53,600.25,618.26,39.50,0000 0000 0000 0000 000000
2016-03-28 02:10:20,0.22,7.15,0.00,13.19,18.67,21.89,15.18,49.22,1019.15,2064.98,1611.21,1819.77,2039.10,600.14,618.10,39.55,0000 0000 0000 0000 000000
2016-03-28 02:15:21,0.24,7.16,0.00,13.27,18.69,21.89,15.19,49.15,1019.27,2064.97,1609.40,1818.49,2037.57,600.03,617.97,39.60,0000 0000 0000 0000 000000
2016-03-28 02:20:23,0.22,7.17,0.00,13.33,18.70,21.91,15.17,49.18,1019.45,2064.97,1607.63,1817.14,2036.02,600.10,618.03,39.65,0000 0000 0000 0000 000000
2016-03-28 02:25:24,0.24,7.18,0.00,13.27,18.72,21.97,15.21,49.19,1019.48,2064.93,1605.78,1815.77,2034.49,600.14,618.26,39.70,0000 0000 0000 0000 000000
2016-03-28 02:30:25,0.20,7.19,0.00,13.25,18.74,21.96,15.18,49.22,1019.48,2064.80,1604.01,1814.45,2032.96,600.03,618.05,39.75,0000 0000 0000 0000 000000
2016-03-28 02:35:27,0.23,7.21,0.00,13.27,18.75,21.95,15.15,49.27,1019.49,2064.55,1602.00,1812.90,2031.33,600.17,618.22,39.80,0000 0000 0000 0000 000000
2016-03-28 02:40:28,0.23,7.22,0.00,13.29,18.77,21.98,15.21,49.23,1019.53,2064.29,1599.85,1811.33,2029.48,600.06,618.07,39.85,0000 0000 0000 0000 000000
2016-03-28 02:45:29,0.24,7.23,0.00,13.30,18.79,22.00,15.19,49.24,1019.55,2064.15,1597.96,1809.79,2027.76,599.90,617.89,39.90,0000 0000 0000 0000 000000
2016-03-28 02:50:30,0.24,7.24,0.00,13.29,18.82,22.01,15.23,49.34,1019.55,2064.06,1595.83,1808.35,2026.03,600.35,618.32,39.95,0000 0000 0000 0000 000000
2016-03-28 02:55:32,0.25,7.26,0.00,13.29,18.83,22.02,15.21,49.23,1019.55,2064.05,1593.83,1806.84,2024.38,600.13,618.10,40.00,0000 0000 0000 0000 000000
2016-03-28 03:00:33,0.23,7.27,0.00,13.36,18.84,22.10,15.15,49.27,1019.56,2064.03,1592.01,1805.48,2022.77,599.86,617.64,40.05,0000 0000 0000 0000 000000
2016-03-28 03:05:35,0.20,7.28,0.00,13.42,18.87,22.10,15.15,49.16,1019.58,2064.01,1590.32,1804.21,2021.34,599.75,617.46,40.10,0000 0000 0000 0000 000000
2016-03-28 03:10:36,0.23,7.29,0.00,13.43,18.88,22.15,15.05,49.17,1019.68,2064.00,1588.58,1802.91,2019.87,599.70,617.40,40.15,0000 0000 0000 0000 000000
2016-03-28 03:15:37,0.23,7.30,0.00,13.49,18.89,22.19,15.21,49.12,1019.83,2064.00,1586.85,1801.66,2018.50,600.05,617.85,40.21,0000 0000 0000 0000 000000
2016-03-28 03:20:38,0.20,7.32,0.00,13.45,18.91,22.18,15.22,49.13,1019.95,2064.00,1585.16,1800.42,2016.98,599.84,617.84,40.26,0000 0000 0000 0000 000000
2016-03-28 03:25:39,0.21,7.33,0.00,13.48,18.92,22.25,15.14,49.16,1020.00,2064.00,1583.54,1799.20,2015.64,600.25,618.13,40.31,0000 0000 0000 0000 000000
2016-03-28 03:30:41,0.19,7.34,0.00,13.45,18.93,22.31,15.18,49.02,1020.02,2063.99,1581.88,1798.07,2014.27,599.95,617.90,40.36,0000 0000 0000 0000 000000
2016-03-28 03:35:42,0.22,7.35,0.00,13.44,18.94,22.35,15.25,49.13,1020.02,2063.98,1580.33,1796.84,2012.88,600.08,617.96,40.41,0000 0000 0000 0000 000000
2016-03-28 03:40:43,0.21,7.36,0.00,13.43,18.94,22.34,15.15,49.17,1020.03,2063.98,1578.75,1795.71,2011.61,600.13,618.15,40.46,0000 0000 0000 0000 000000
2016-03-28 03:45:44,0.21,7.37,0.00,13.44,18.96,22.41,15.17,49.07,1020.03,2063.98,1577.03,1794.53,2010.22,599.84,617.75,40.51,0000 0000 0000 0000 000000
2016-03-28 03:50:45,0.20,7.38,0.00,13.46,18.97,22.40,15.12,49.13,1020.06,2063.97,1575.53,1793.39,2008.82,599.36,617.30,40.56,0000 0000 0000 0000 000000
2016-03-28 03:55:46,0.19,7.39,0.00,13.51,18.99,22.43,15.26,49.20,1020.11,2063.97,1573.94,1792.25,2007.54,600.17,618.07,40.61,0000 0000 0000 0000 000000
2016-03-28 04:00:48,0.19,7.40,0.00,13.58,19.00,22.44,15.15,49.17,1020.23,2063.94,1572.25,1791.05,2006.03,599.97,617.75,40.66,0000 0000 0000 0000 000000
2016-03-28 04:05:49,0.23,7.41,0.00,13.60,19.02,22.50,15.22,49.11,1020.40,2063.82,1570.48,1789.77,2004.57,600.06,617.86,40.71,0000 0000 0000 0000 000000
2016-03-28 04:10:51,0.20,7.42,0.00,13.63,19.03,22.47,15.20,49.13,1020.49,2063.73,1568.81,1788.55,2003.23,600.12,617.97,40.76,0000 0000 0000 0000 000000
2016-03-28 04:15:52,0.17,7.43,0.00,13.68,19.06,22.46,15.12,49.05,1020.50,2063.41,1567.09,1787.24,2001.68,599.80,617.55,40.81,0000 0000 0000 0000 000000
2016-03-28 04:20:53,0.21,7.44,0.00,13.73,19.08,22.49,15.10,49.17,1020.52,2063.11,1565.21,1785.78,2000.06,600.01,617.64,40.86,0000 0000 0000 0000 000000
2016-03-28 04:25:54,0.23,7.45,0.00,13.73,19.11,22.53,15.17,49.30,1020.52,2063.01,1563.41,1784.40,1998.50,600.18,617.86,40.91,0000 0000 0000 0000 000000
2016-03-28 04:30:56,0.24,7.46,0.00,13.77,19.13,22.46,15.19,49.10,1020.52,2063.00,1561.62,1783.03,1996.89,600.07,617.64,40.96,0000 0000 0000 0000 000000
2016-03-28 04:35:57,0.24,7.48,0.00,13.83,19.17,22.47,15.14,49.04,1020.52,2063.00,1559.83,1781.72,1995.42,599.91,617.38,41.01,0000 0000 0000 0000 000000
2016-03-28 04:40:58,0.25,7.49,0.00,13.87,19.20,22.50,15.16,49.13,1020.53,2063.00,1557.94,1780.24,1993.72,600.18,617.60,41.06,0000 0000 0000 0000 000000
2016-03-28 04:46:00,0.25,7.50,0.00,13.92,19.23,22.50,15.15,49.15,1020.56,2062.98,1555.99,1778.78,1992.12,599.94,617.22,41.11,0000 0000 0000 0000 000000
2016-03-28 04:51:01,0.24,7.51,0.00,13.95,19.25,22.54,15.21,49.14,1020.59,2062.96,1554.09,1777.42,1990.49,600.07,617.23,41.17,0000 0000 0000 0000 000000
2016-03-28 04:56:02,0.19,7.53,0.00,13.92,19.28,22.58,15.24,49.20,1020.69,2062.84,1552.37,1776.07,1988.91,600.19,617.58,41.22,0000 0000 0000 0000 000000
2016-03-28 05:01:04,0.20,7.54,0.00,13.93,19.31,22.61,15.14,49.33,1020.79,2062.60,1550.73,1774.83,1987.54,600.12,617.54,41.27,0000 0000 0000 0000 000000
2016-03-28 05:06:05,0.17,7.54,0.00,13.94,19.33,22.66,15.13,49.19,1020.86,2062.17,1549.08,1773.58,1986.15,600.02,617.46,41.32,0000 0000 0000 0000 000000
2016-03-28 05:11:06,0.24,7.56,0.00,13.91,19.34,22.77,15.12,49.17,1020.98,2062.09,1547.17,1772.29,1984.65,599.88,617.33,41.37,0000 0000 0000 0000 000000
2016-03-28 05:16:07,0.23,7.57,0.00,13.92,19.37,22.80,15.07,49.12,1021.01,2062.06,1545.30,1770.89,1983.21,599.80,617.30,41.42,0000 0000 0000 0000 000000
2016-03-28 05:21:09,0.26,7.58,0.00,14.00,19.38,22.72,15.24,49.23,1021.01,2062.02,1543.39,1769.48,1981.68,600.14,617.52,41.47,0000 0000 0000 0000 000000
2016-03-28 05:26:10,0.23,7.59,0.00,14.10,19.40,22.67,15.16,49.20,1021.01,2062.01,1541.54,1768.07,1980.09,599.92,617.02,41.52,0000 0000 0000 0000 000000
2016-03-28 05:31:12,0.28,7.61,0.00,14.11,19.43,22.73,15.08,49.23,1021.01,2062.00,1539.64,1766.66,1978.49,599.81,616.91,41.57,0000 0000 0000 0000 000000
2016-03-28 05:36:13,0.24,7.62,0.00,14.12,19.44,22.77,15.19,49.28,1021.02,2062.00,1537.75,1765.33,1976.89,600.14,617.30,41.62,0000 0000 0000 0000 000000
2016-03-28 05:41:15,0.24,7.63,0.00,14.18,19.46,22.91,15.09,49.22,1021.06,2061.99,1535.83,1763.88,1975.38,600.11,617.14,41.67,0000 0000 0000 0000 000000
2016-03-28 05:46:16,0.24,7.64,0.00,14.28,19.47,23.07,15.19,49.21,1021.19,2061.99,1534.29,1762.55,1973.75,600.12,617.07,41.72,0000 0000 0000 0000 000000
2016-03-28 05:51:17,0.23,7.66,0.00,14.32,19.48,23.20,15.15,49.21,1021.30,2061.97,1532.45,1761.26,1972.28,600.24,617.17,41.77,0000 0000 0000 0000 000000
2016-03-28 05:56:18,0.26,7.67,0.00,14.34,19.49,23.27,15.20,49.17,1021.41,2061.96,1530.60,1759.84,1970.67,599.89,616.92,41.82,0000 0000 0000 0000 000000
2016-03-28 06:01:19,0.25,7.68,0.00,14.43,19.52,23.36,15.14,49.18,1021.49,2061.92,1528.67,1758.41,1969.15,599.76,616.48,41.87,0000 0000 0000 0000 000000
2016-03-28 06:06:20,0.24,7.69,0.00,14.54,19.53,23.42,15.14,49.20,1021.50,2061.91,1526.81,1757.06,1967.66,599.93,616.37,41.92,0000 0000 0000 0000 000000
2016-03-28 06:11:22,0.22,7.71,0.00,14.59,19.55,23.40,15.12,49.13,1021.50,2061.78,1524.96,1755.69,1966.06,599.85,616.36,41.97,0000 0000 0000 0000 000000
2016-03-28 06:16:23,0.20,7.72,0.00,14.56,19.58,23.44,15.21,49.13,1021.50,2061.57,1523.22,1754.41,1964.60,600.08,616.61,42.02,0000 0000 0000 0000 000000
2016-03-28 06:21:24,0.21,7.73,0.00,14.56,19.61,23.46,15.12,49.21,1021.51,2061.39,1521.45,1752.96,1963.04,599.89,616.37,42.08,0000 0000 0000 0000 000000
2016-03-28 06:26:25,0.24,7.74,0.00,14.64,19.64,23.59,15.10,49.19,1021.60,2061.08,1519.60,1751.61,1961.48,600.35,616.65,42.13,0000 0000 0000 0000 000000
2016-03-28 06:31:27,0.22,7.75,0.00,14.64,19.68,23.62,15.11,49.17,1021.71,2061.03,1517.86,1750.24,1959.91,600.05,616.43,42.18,0000 0000 0000 0000 000000
2016-03-28 06:36:28,0.26,7.77,0.00,14.62,19.71,23.71,15.13,49.23,1021.81,2061.01,1516.08,1748.85,1958.39,600.21,616.73,42.23,0000 0000 0000 0000 000000
2016-03-28 06:41:29,0.27,7.78,0.00,14.56,19.73,23.72,15.12,49.23,1021.88,2061.00,1514.07,1747.47,1956.72,599.93,616.61,42.28,0000 0000 0000 0000 000000
2016-03-28 06:46:31,0.24,7.79,0.00,14.63,19.77,23.68,15.12,49.32,1021.97,2061.00,1512.33,1746.06,1955.21,599.88,616.49,42.33,0000 0000 0000 0000 000000
2016-03-28 06:51:32,0.26,7.80,0.00,14.68,19.79,23.72,15.12,49.27,1021.98,2060.99,1510.58,1744.71,1953.64,599.91,616.42,42.38,0000 0000 0000 0000 000000
2016-03-28 06:56:33,0.23,7.82,0.00,14.64,19.82,23.86,15.18,49.26,1021.99,2060.97,1508.82,1743.46,1952.19,600.22,616.78,42.43,0000 0000 0000 0000 000000
2016-03-28 07:01:34,0.24,7.83,0.00,14.60,19.85,23.94,15.14,49.23,1021.99,2060.94,1507.12,1742.06,1950.59,599.84,616.60,42.48,0000 0000 0000 0000 000000
2016-03-28 07:06:36,0.20,7.84,0.00,14.72,19.88,23.83,15.13,49.21,1021.99,2060.70,1505.34,1740.71,1949.05,599.95,616.43,42.53,0000 0000 0000 0000 000000
2016-03-28 07:11:37,0.18,7.85,0.00,14.75,19.90,23.88,15.16,49.20,1022.00,2060.14,1503.57,1739.37,1947.53,599.81,616.08,42.58,0000 0000 0000 0000 000000
2016-03-28 07:16:38,0.23,7.86,0.00,14.73,19.92,23.92,15.13,49.29,1022.02,2060.03,1501.74,1738.02,1945.96,599.90,616.32,42.63,0000 0000 0000 0000 000000
2016-03-28 07:21:40,0.25,7.87,0.00,14.70,19.94,23.91,15.17,49.33,1022.10,2060.02,1500.00,1736.67,1944.46,599.99,616.52,42.68,0000 0000 0000 0000 000000
2016-03-28 07:26:41,0.24,7.89,0.00,14.71,19.97,23.93,15.16,49.35,1022.32,2060.01,1498.17,1735.36,1942.89,599.94,616.64,42.73,0000 0000 0000 0000 000000
2016-03-28 07:31:42,0.25,7.90,0.00,14.79,19.98,23.99,15.06,49.19,1022.44,2060.00,1496.27,1733.90,1941.33,599.76,616.34,42.78,0000 0000 0000 0000 000000
2016-03-28 07:36:44,0.26,7.91,0.00,14.76,19.99,23.99,15.16,49.19,1022.46,2060.00,1494.42,1732.58,1939.78,600.02,616.68,42.83,0000 0000 0000 0000 000000
2016-03-28 07:41:45,0.24,7.93,0.00,14.75,20.00,23.97,15.19,49.20,1022.47,2060.00,1492.63,1731.29,1938.28,600.09,616.75,42.89,0000 0000 0000 0000 000000
2016-03-28 07:46:46,0.25,7.94,0.00,14.76,20.02,23.92,15.05,49.11,1022.48,2059.98,1490.88,1729.87,1936.74,599.63,616.25,42.94,0000 0000 0000 0000 000000
2016-03-28 07:51:47,0.23,7.95,0.00,14.83,20.02,24.03,15.20,49.18,1022.48,2059.98,1489.18,1728.62,1935.31,600.62,617.12,42.99,0000 0000 0000 0000 000000
2016-03-28 07:56:49,0.23,7.96,0.00,14.83,20.03,24.01,15.16,49.09,1022.48,2059.97,1487.54,1727.44,1933.80,600.27,616.71,43.04,0000 0000 0000 0000 000000
2016-03-28 08:01:50,0.21,7.97,0.00,14.75,20.04,24.02,15.07,49.06,1022.48,2059.89,1485.85,1726.35,1932.48,599.88,616.52,43.09,0000 0000 0000 0000 000000
2016-03-28 08:06:52,0.20,7.98,0.00,14.75,20.04,23.99,15.05,49.08,1022.49,2059.78,1484.23,1725.13,1931.05,599.87,616.60,43.14,0000 0000 0000 0000 000000
2016-03-28 08:11:53,0.21,7.99,0.00,14.80,20.04,24.06,15.08,49.01,1022.49,2059.71,1482.57,1723.93,1929.67,599.75,616.32,43.19,0000 0000 0000 0000 000000
2016-03-28 08:16:54,0.27,8.01,0.00,14.83,20.04,24.08,15.14,48.98,1022.52,2059.80,1480.92,1722.74,1928.41,600.06,616.60,43.24,0000 0000 0000 0000 000000
2016-03-28 08:21:55,0.17,8.02,0.00,14.74,20.04,24.08,15.21,49.09,1022.69,2059.61,1479.49,1721.59,1927.06,600.08,616.84,43.29,0000 0000 0000 0000 000000
2016-03-28 08:26:56,0.19,8.03,0.00,14.75,20.04,24.07,15.16,49.16,1022.83,2059.57,1477.96,1720.50,1925.76,600.09,617.01,43.34,0000 0000 0000 0000 000000
2016-03-28 08:31:58,0.20,8.03,0.00,14.84,20.05,23.95,15.13,49.09,1022.95,2059.37,1476.54,1719.41,1924.49,600.03,616.84,43.39,0000 0000 0000 0000 000000
2016-03-28 08:36:59,0.23,8.05,0.00,14.84,20.05,24.14,15.14,49.03,1022.96,2059.41,1474.75,1718.15,1923.10,599.83,616.58,43.44,0000 0000 0000 0000 000000
2016-03-28 08:42:00,0.24,8.06,0.00,14.73,20.04,24.09,15.13,49.09,1022.96,2059.37,1472.98,1716.95,1921.70,599.97,616.96,43.49,0000 0000 0000 0000 000000
2016-03-28 08:47:02,0.22,8.07,0.00,14.80,20.04,24.00,15.19,49.08,1022.96,2059.51,1471.55,1715.83,1920.52,600.34,617.19,43.54,0000 0000 0000 0000 000000
2016-03-28 08:52:03,0.20,8.08,0.00,14.92,20.06,23.89,15.08,49.03,1022.97,2059.45,1470.13,1714.72,1919.30,600.18,616.80,43.59,0000 0000 0000 0000 000000
2016-03-28 08:57:05,0.29,8.10,0.00,15.00,20.07,23.79,15.06,48.90,1022.98,2059.30,1468.12,1713.25,1917.60,599.85,616.36,43.64,0000 0000 0000 0000 000000
2016-03-28 09:02:06,0.30,8.11,0.00,14.94,20.07,24.04,15.02,48.97,1022.99,2059.11,1465.84,1711.63,1915.76,599.72,616.31,43.69,0000 0000 0000 0000 000000
2016-03-28 09:07:07,0.28,8.13,0.00,14.93,20.07,24.13,15.17,49.02,1023.04,2059.20,1463.88,1710.11,1914.08,600.11,616.65,43.74,0000 0000 0000 0000 000000
2016-03-28 09:12:08,0.28,8.14,0.00,14.97,20.06,24.12,15.16,49.00,1023.08,2059.18,1461.95,1708.67,1912.48,599.91,616.35,43.80,0000 0000 0000 0000 000000
2016-03-28 09:17:10,0.24,8.15,0.00,15.01,20.05,24.08,15.11,48.98,1023.15,2059.16,1460.16,1707.43,1911.02,599.79,616.22,43.85,0000 0000 0000 0000 000000
2016-03-28 09:22:11,0.24,8.17,0.00,14.98,20.04,24.04,15.09,48.94,1023.30,2059.22,1458.45,1706.16,1909.53,599.98,616.58,43.90,0000 0000 0000 0000 000000
2016-03-28 09:27:13,0.20,8.18,0.00,14.94,20.04,24.11,15.14,48.91,1023.43,2059.17,1456.88,1704.99,1908.25,600.08,617.01,43.95,0000 0000 0000 0000 000000
2016-03-28 09:32:14,0.22,8.19,0.00,14.94,20.04,24.11,15.07,48.83,1023.45,2059.22,1455.49,1703.90,1906.99,600.00,616.81,44.00,0000 0000 0000 0000 000000
2016-03-28 09:37:15,0.21,8.20,0.00,14.99,20.04,24.07,15.16,48.98,1023.45,2059.33,1454.02,1702.85,1905.79,599.97,616.62,44.05,0000 0000 0000 0000 000000
2016-03-28 09:42:16,0.25,8.21,0.00,14.98,20.03,24.07,15.21,49.02,1023.46,2059.54,1452.62,1701.83,1904.62,600.00,616.80,44.10,0000 0000 0000 0000 000000
2016-03-28 09:47:17,0.18,8.22,0.00,14.90,20.02,24.12,15.18,48.93,1023.49,2059.37,1451.10,1700.75,1903.43,600.27,617.19,44.15,0000 0000 0000 0000 000000
2016-03-28 09:52:19,0.25,8.23,0.00,14.85,20.02,24.18,15.06,49.00,1023.55,2059.62,1449.71,1699.65,1902.14,599.85,616.97,44.20,0000 0000 0000 0000 000000
2016-03-28 09:57:20,0.12,8.24,0.00,14.86,20.02,24.22,15.18,48.99,1023.74,2059.33,1448.70,1698.62,1900.92,599.85,617.02,44.25,0000 0000 0000 0000 000000
2016-03-28 10:02:22,0.20,8.25,0.00,14.93,20.02,24.21,15.22,48.92,1023.88,2059.10,1447.19,1697.56,1899.58,600.06,617.14,44.30,0000 0000 0000 0000 000000
2016-03-28 10:07:23,0.23,8.26,0.00,14.88,20.02,24.12,15.26,48.91,1023.92,2059.08,1445.60,1696.36,1898.24,600.27,617.59,44.35,0000 0000 0000 0000 000000
2016-03-28 10:12:24,0.28,8.27,0.00,14.80,20.02,24.14,15.17,48.88,1023.93,2059.05,1443.67,1694.95,1896.70,600.09,617.48,44.40,0000 0000 0000 0000 000000
2016-03-28 10:17:25,0.26,8.29,0.00,14.79,20.02,24.09,15.25,49.08,1023.94,2059.07,1441.76,1693.66,1895.27,600.08,617.48,44.45,0000 0000 0000 0000 000000
2016-03-28 10:22:26,0.23,8.30,0.00,14.82,20.00,24.09,15.12,48.97,1023.94,2059.04,1440.16,1692.55,1893.82,600.06,617.49,44.50,0000 0000 0000 0000 000000
2016-03-28 10:27:27,0.25,8.31,0.00,14.76,19.99,24.13,15.14,48.92,1023.94,2059.04,1438.25,1691.24,1892.52,599.95,617.47,44.55,0000 0000 0000 0000 000000
2016-03-28 10:32:29,0.17,8.32,0.00,14.70,19.97,24.13,15.17,48.87,1023.94,2059.08,1437.32,1690.38,1891.42,599.95,617.70,44.60,0000 0000 0000 0000 000000
2016-03-28 10:37:30,0.20,8.34,0.00,14.69,19.97,23.93,15.27,48.89,1023.95,2059.13,1435.86,1689.25,1890.20,600.34,618.01,44.65,0000 0000 0000 0000 000000
2016-03-28 10:42:31,0.24,8.34,0.00,14.69,19.94,24.10,15.18,48.83,1023.94,2059.20,1434.30,1688.19,1888.93,599.97,617.62,44.71,0000 0000 0000 0000 000000
2016-03-28 10:47:33,0.25,8.36,0.00,14.62,19.93,24.11,15.27,48.87,1023.94,2059.46,1432.66,1687.14,1887.75,600.22,618.01,44.76,0000 0000 0000 0000 000000
2016-03-28 10:52:34,0.24,8.37,0.00,14.56,19.91,24.05,15.15,48.87,1023.95,2059.72,1431.31,1686.10,1886.56,599.72,617.67,44.81,0000 0000 0000 0000 000000
2016-03-28 10:57:36,0.25,8.39,0.00,14.56,19.89,23.98,15.15,48.85,1023.94,2059.93,1429.50,1685.02,1885.37,600.03,618.07,44.86,0000 0000 0000 0000 000000
2016-03-28 11:02:37,0.19,8.40,0.00,14.55,19.87,23.91,15.20,48.87,1023.95,2059.97,1428.05,1684.02,1884.16,599.70,617.71,44.91,0000 0000 0000 0000 000000
2016-03-28 11:07:39,0.19,8.41,0.00,14.52,19.85,24.03,15.16,48.86,1023.94,2059.98,1426.80,1683.07,1883.04,599.61,617.60,44.96,0000 0000 0000 0000 000000
2016-03-28 11:12:40,0.20,8.42,0.00,14.42,19.83,23.83,15.13,48.81,1023.96,2059.98,1425.54,1682.03,1881.85,599.88,618.13,45.01,0000 0000 0000 0000 000000
2016-03-28 11:17:41,0.20,8.43,0.00,14.36,19.80,23.73,15.18,48.88,1023.98,2059.98,1424.01,1681.07,1880.74,599.93,618.40,45.06,0000 0000 0000 0000 000000
2016-03-28 11:22:43,0.20,8.44,0.00,14.39,19.78,23.75,15.17,48.87,1024.06,2059.99,1422.74,1680.16,1879.70,600.03,618.44,45.11,0000 0000 0000 0000 000000
2016-03-28 11:27:44,0.20,8.45,0.00,14.36,19.76,23.74,15.14,48.97,1024.07,2059.99,1421.34,1679.17,1878.58,600.20,618.60,45.16,0000 0000 0000 0000 000000
2016-03-28 11:32:45,0.20,8.46,0.00,14.29,19.73,23.80,15.22,48.99,1024.04,2059.99,1419.91,1678.21,1877.54,599.97,618.50,45.21,0000 0000 0000 0000 000000
2016-03-28 11:37:46,0.21,8.47,0.00,14.26,19.70,23.63,15.18,49.01,1024.07,2060.01,1418.44,1677.16,1876.31,599.90,618.46,45.26,0000 0000 0000 0000 000000
2016-03-28 11:42:47,0.19,8.48,0.00,14.29,19.67,23.68,15.25,48.98,1024.15,2060.01,1417.19,1676.33,1875.26,599.97,618.71,45.31,0000 0000 0000 0000 000000
2016-03-28 11:47:49,0.18,8.49,0.00,14.24,19.64,23.66,15.20,48.91,1024.16,2060.16,1416.02,1675.49,1874.26,599.78,618.63,45.36,0000 0000 0000 0000 000000
2016-03-28 11:52:50,0.29,8.50,0.00,14.16,19.61,23.53,15.14,48.89,1024.19,2060.62,1414.62,1674.57,1873.22,599.64,618.57,45.41,0000 0000 0000 0000 000000
2016-03-28 11:57:51,0.20,8.51,0.00,14.14,19.58,23.49,15.20,48.88,1024.25,2060.95,1413.21,1673.71,1872.15,599.82,618.89,45.46,0000 0000 0000 0000 000000
2016-03-28 12:02:53,0.22,8.52,0.00,14.14,19.55,23.62,15.25,48.92,1024.30,2060.96,1411.81,1672.73,1871.07,599.96,618.98,45.51,0000 0000 0000 0000 000000
2016-03-28 12:07:54,0.21,8.53,0.00,14.06,19.52,23.60,15.28,48.95,1024.32,2060.98,1410.30,1671.69,1869.85,600.17,619.41,45.57,0000 0000 0000 0000 000000
2016-03-28 12:12:55,0.22,8.54,0.00,13.97,19.48,23.41,15.10,48.94,1024.35,2060.99,1408.75,1670.73,1868.79,599.70,619.17,45.62,0000 0000 0000 0000 000000
2016-03-28 12:17:56,0.20,8.55,0.00,13.98,19.45,23.43,15.32,49.07,1024.42,2060.99,1407.44,1669.73,1867.72,600.33,619.89,45.67,0000 0000 0000 0000 000000
2016-03-28 12:22:58,0.18,8.56,0.00,13.96,19.42,23.55,15.25,48.93,1024.42,2061.03,1406.01,1668.84,1866.67,599.89,619.43,45.72,0000 0000 0000 0000 000000
2016-03-28 12:27:59,0.22,8.57,0.00,13.91,19.38,23.53,15.20,48.98,1024.42,2061.09,1404.64,1667.96,1865.60,600.16,619.75,45.77,0000 0000 0000 0000 000000
2016-03-28 12:33:00,0.20,8.58,0.00,13.85,19.36,23.31,15.29,49.06,1024.43,2061.39,1403.68,1667.17,1864.59,600.27,620.03,45.82,0000 0000 0000 0000 000000
2016-03-28 12:38:01,0.31,8.60,0.00,13.88,19.33,23.47,15.18,48.94,1024.43,2061.85,1401.75,1666.00,1863.47,599.82,619.48,45.87,0000 0000 0000 0000 000000
2016-03-28 12:43:03,0.20,8.61,0.00,13.84,19.31,23.32,15.31,49.05,1024.43,2061.97,1400.37,1664.93,1862.30,600.19,620.08,45.92,0000 0000 0000 0000 000000
2016-03-28 12:48:04,0.25,8.63,0.00,13.74,19.28,23.19,15.22,48.98,1024.43,2061.98,1398.69,1663.83,1860.98,599.83,619.81,45.97,0000 0000 0000 0000 000000
2016-03-28 12:53:05,0.19,8.64,0.00,13.74,19.26,23.15,15.18,49.00,1024.43,2061.99,1397.29,1662.85,1859.80,599.83,619.88,46.02,0000 0000 0000 0000 000000
2016-03-28 12:58:07,0.24,8.65,0.00,13.77,19.23,23.15,15.28,49.09,1024.43,2061.99,1395.70,1661.80,1858.65,599.88,619.75,46.07,0000 0000 0000 0000 000000